TimeMDT,TemperatureF,Dew PointF,Humidity,Sea Level PressureIn,VisibilityMPH,Wind Direction,Wind SpeedMPH,Gust SpeedMPH,PrecipitationIn,Events,Conditions,WindDirDegrees,DateUTC
12:15 AM,48.2,37.4,66,30.38,10.0,NNW,12.7,-,N/A,,Clear,330,2013-05-11 06:15:00
12:35 AM,50.0,37.4,62,30.39,10.0,NNW,11.5,-,N/A,,Clear,340,2013-05-11 06:35:00
12:55 AM,50.0,37.4,62,30.39,10.0,NNW,15.0,-,N/A,,Partly Cloudy,330,2013-05-11 06:55:00
1:15 AM,50.0,37.4,62,30.39,10.0,NNW,10.4,-,N/A,,Mostly Cloudy,330,2013-05-11 07:15:00
1:35 AM,51.8,39.2,62,30.40,10.0,NNW,8.1,-,N/A,,Overcast,340,2013-05-11 07:35:00
1:55 AM,51.8,39.2,62,30.40,10.0,NNW,9.2,-,N/A,,Overcast,340,2013-05-11 07:55:00
2:15 AM,51.8,39.2,62,30.41,10.0,North,5.8,-,N/A,,Overcast,350,2013-05-11 08:15:00
2:35 AM,51.8,39.2,62,30.41,10.0,NW,4.6,-,N/A,,Overcast,320,2013-05-11 08:35:00
2:55 AM,51.8,39.2,62,30.41,10.0,NNW,3.5,-,N/A,,Overcast,330,2013-05-11 08:55:00
3:15 AM,51.8,39.2,62,30.41,10.0,Calm,Calm,-,N/A,,Scattered Clouds,0,2013-05-11 09:15:00
3:35 AM,51.8,39.2,62,30.40,10.0,Calm,Calm,-,N/A,,Clear,0,2013-05-11 09:35:00
3:55 AM,50.0,39.2,66,30.40,10.0,Calm,Calm,-,N/A,,Scattered Clouds,0,2013-05-11 09:55:00
4:15 AM,50.0,37.4,62,30.40,10.0,Calm,Calm,-,N/A,,Mostly Cloudy,0,2013-05-11 10:15:00
4:35 AM,48.2,37.4,66,30.40,10.0,Calm,Calm,-,N/A,,Scattered Clouds,0,2013-05-11 10:35:00
4:55 AM,46.4,39.2,76,30.40,10.0,South,5.8,-,N/A,,Mostly Cloudy,190,2013-05-11 10:55:00
5:15 AM,46.4,39.2,76,30.40,10.0,South,3.5,-,N/A,,Mostly Cloudy,170,2013-05-11 11:15:00
5:35 AM,46.4,37.4,71,30.41,10.0,South,3.5,-,N/A,,Scattered Clouds,170,2013-05-11 11:35:00
5:55 AM,46.4,37.4,71,30.41,10.0,South,3.5,-,N/A,,Overcast,180,2013-05-11 11:55:00
6:15 AM,46.4,37.4,71,30.42,10.0,NE,5.8,-,N/A,,Scattered Clouds,50,2013-05-11 12:15:00
6:35 AM,44.6,37.4,76,30.43,10.0,ENE,5.8,-,N/A,,Clear,60,2013-05-11 12:35:00
6:55 AM,44.6,37.4,76,30.43,10.0,East,3.5,-,N/A,,Clear,80,2013-05-11 12:55:00
7:15 AM,48.2,41.0,76,30.43,10.0,ESE,4.6,-,N/A,,Clear,120,2013-05-11 13:15:00
7:35 AM,50.0,41.0,71,30.44,10.0,SE,3.5,-,N/A,,Clear,130,2013-05-11 13:35:00
7:55 AM,51.8,39.2,62,30.43,10.0,SE,4.6,-,N/A,,Clear,130,2013-05-11 13:55:00
8:15 AM,51.8,41.0,67,30.43,10.0,ESE,5.8,-,N/A,,Clear,110,2013-05-11 14:15:00
8:35 AM,51.8,39.2,62,30.44,10.0,East,6.9,-,N/A,,Clear,100,2013-05-11 14:35:00
8:55 AM,53.6,42.8,67,30.43,10.0,East,6.9,-,N/A,,Clear,90,2013-05-11 14:55:00
9:15 AM,53.6,42.8,67,30.43,10.0,SE,10.4,-,N/A,,Partly Cloudy,130,2013-05-11 15:15:00
9:35 AM,53.6,42.8,67,30.43,10.0,SSE,9.2,-,N/A,,Clear,160,2013-05-11 15:35:00
9:55 AM,55.4,42.8,63,30.42,10.0,SE,9.2,-,N/A,,Clear,130,2013-05-11 15:55:00
10:15 AM,55.4,42.8,63,30.41,10.0,SSE,10.4,-,N/A,,Clear,150,2013-05-11 16:15:00
10:35 AM,55.4,42.8,63,30.40,10.0,SSE,6.9,-,N/A,,Clear,160,2013-05-11 16:35:00
10:55 AM,57.2,42.8,59,30.40,10.0,SSE,6.9,16.1,N/A,,Clear,150,2013-05-11 16:55:00
11:15 AM,59.0,42.8,55,30.39,10.0,SSE,9.2,-,N/A,,Clear,160,2013-05-11 17:15:00
11:35 AM,59.0,42.8,55,30.39,10.0,SE,4.6,-,N/A,,Clear,140,2013-05-11 17:35:00
11:55 AM,59.0,42.8,55,30.39,10.0,South,3.5,-,N/A,,Partly Cloudy,170,2013-05-11 17:55:00
12:15 PM,60.8,42.8,52,30.37,10.0,SSE,6.9,-,N/A,,Clear,160,2013-05-11 18:15:00
12:35 PM,62.6,44.6,52,30.37,10.0,South,6.9,-,N/A,,Clear,190,2013-05-11 18:35:00
12:55 PM,62.6,44.6,52,30.36,10.0,South,3.5,-,N/A,,Clear,190,2013-05-11 18:55:00
1:15 PM,60.8,44.6,55,30.35,10.0,SSE,4.6,-,N/A,,Clear,160,2013-05-11 19:15:00
1:55 PM,64.4,44.6,49,30.33,10.0,South,8.1,-,N/A,,Clear,170,2013-05-11 19:55:00
2:15 PM,64.4,42.8,45,30.33,10.0,SSE,5.8,-,N/A,,Scattered Clouds,160,2013-05-11 20:15:00
2:35 PM,62.6,42.8,48,30.34,10.0,Calm,Calm,-,N/A,,Overcast,0,2013-05-11 20:35:00
2:55 PM,60.8,42.8,52,30.32,10.0,South,11.5,-,N/A,Thunderstorm,Overcast,170,2013-05-11 20:55:00
3:15 PM,64.4,42.8,45,30.30,10.0,SSE,11.5,17.3,N/A,,Scattered Clouds,160,2013-05-11 21:15:00
3:35 PM,66.2,39.2,37,30.31,10.0,Calm,Calm,-,N/A,,Clear,0,2013-05-11 21:35:00
3:55 PM,64.4,39.2,40,30.30,10.0,South,8.1,-,N/A,,Scattered Clouds,180,2013-05-11 21:55:00
4:35 PM,62.6,44.6,52,30.30,10.0,East,8.1,-,N/A,,Mostly Cloudy,100,2013-05-11 22:35:00
4:55 PM,62.6,42.8,48,30.29,10.0,East,16.1,-,N/A,,Scattered Clouds,90,2013-05-11 22:55:00
5:35 PM,62.6,44.6,52,30.27,10.0,East,12.7,-,N/A,,Clear,100,2013-05-11 23:35:00
5:55 PM,60.8,44.6,55,30.28,10.0,East,13.8,-,N/A,,Clear,80,2013-05-11 23:55:00
6:15 PM,62.6,44.6,52,30.28,10.0,East,9.2,-,N/A,,Clear,100,2013-05-12 00:15:00
6:35 PM,60.8,44.6,55,30.28,10.0,SE,6.9,-,N/A,,Partly Cloudy,130,2013-05-12 00:35:00
6:55 PM,62.6,44.6,52,30.27,10.0,SE,6.9,-,N/A,,Mostly Cloudy,130,2013-05-12 00:55:00
7:15 PM,60.8,44.6,55,30.27,10.0,SSE,8.1,-,N/A,,Partly Cloudy,150,2013-05-12 01:15:00
7:35 PM,59.0,44.6,59,30.28,10.0,SE,3.5,-,N/A,,Clear,130,2013-05-12 01:35:00
8:15 PM,55.4,42.8,63,30.26,10.0,SE,6.9,-,N/A,,Clear,130,2013-05-12 02:15:00
8:35 PM,55.4,44.6,67,30.27,10.0,SE,6.9,-,N/A,,Clear,130,2013-05-12 02:35:00
8:55 PM,53.6,44.6,72,30.26,10.0,SE,6.9,-,N/A,,Clear,140,2013-05-12 02:55:00
9:15 PM,51.8,44.6,76,30.26,10.0,SSE,9.2,-,N/A,,Clear,150,2013-05-12 03:15:00
9:35 PM,51.8,44.6,76,30.26,10.0,SSE,8.1,-,N/A,,Clear,160,2013-05-12 03:35:00
9:55 PM,51.8,46.4,82,30.26,10.0,Calm,Calm,-,N/A,,Clear,0,2013-05-12 03:55:00
10:15 PM,53.6,46.4,77,30.26,10.0,SSW,3.5,-,N/A,,Clear,210,2013-05-12 04:15:00
10:35 PM,50.0,44.6,82,30.26,10.0,Calm,Calm,-,N/A,,Clear,0,2013-05-12 04:35:00
11:15 PM,50.0,44.6,82,30.26,10.0,Calm,Calm,-,N/A,,Clear,0,2013-05-12 05:15:00
11:35 PM,48.2,42.8,82,30.25,10.0,North,6.9,-,N/A,,Clear,350,2013-05-12 05:35:00
11:55 PM,46.4,42.8,87,30.25,10.0,NNW,5.8,-,N/A,,Clear,340,2013-05-12 05:55:00